Year,Month,Day,Hour,Minute,Value (Times are PST for temperature in C)
2010,04,26,00,00,7.50
2010,04,26,00,01,7.50
2010,04,26,00,02,7.60
2010,04,26,00,03,7.50
2010,04,26,00,04,7.50
2010,04,26,00,05,7.50
2010,04,26,00,06,7.50
2010,04,26,00,07,7.50
2010,04,26,00,08,7.50
2010,04,26,00,09,7.50
2010,04,26,00,10,7.50
2010,04,26,00,11,7.50
2010,04,26,00,12,7.50
2010,04,26,00,13,7.50
2010,04,26,00,14,7.50
2010,04,26,00,15,7.50
2010,04,26,00,16,7.50
2010,04,26,00,17,7.50
2010,04,26,00,18,7.50
2010,04,26,00,19,7.40
2010,04,26,00,20,7.40
2010,04,26,00,21,7.40
2010,04,26,00,22,7.40
2010,04,26,00,23,7.40
2010,04,26,00,24,7.40
2010,04,26,00,25,7.40
2010,04,26,00,26,7.30
2010,04,26,00,27,7.30
2010,04,26,00,28,7.30
2010,04,26,00,29,7.30
2010,04,26,00,30,7.30
2010,04,26,00,31,7.30
2010,04,26,00,32,7.20
2010,04,26,00,33,7.20
2010,04,26,00,34,7.20
2010,04,26,00,35,7.20
2010,04,26,00,36,7.20
2010,04,26,00,37,7.20
2010,04,26,00,38,7.20
2010,04,26,00,39,7.20
2010,04,26,00,40,7.20
2010,04,26,00,41,7.20
2010,04,26,00,42,7.20
2010,04,26,00,43,7.20
2010,04,26,00,44,7.10
2010,04,26,00,45,7.10
2010,04,26,00,46,7.10
2010,04,26,00,47,7.10
2010,04,26,00,48,7.10
2010,04,26,00,49,7.10
2010,04,26,00,50,7.10
2010,04,26,00,51,7.10
2010,04,26,00,52,7.10
2010,04,26,00,53,7.10
2010,04,26,00,54,7.10
2010,04,26,00,55,7.10
2010,04,26,00,56,7.10
2010,04,26,00,57,7.10
2010,04,26,00,58,7.10
2010,04,26,00,59,7.10
2010,04,26,01,00,7.10
2010,04,26,01,01,7.10
2010,04,26,01,02,7.00
2010,04,26,01,03,7.00
2010,04,26,01,04,7.00
2010,04,26,01,05,7.00
2010,04,26,01,06,7.00
2010,04,26,01,07,7.00
2010,04,26,01,08,7.00
2010,04,26,01,09,7.00
2010,04,26,01,10,7.00
2010,04,26,01,11,7.00
2010,04,26,01,12,6.90
2010,04,26,01,13,6.90
2010,04,26,01,14,6.90
2010,04,26,01,15,6.90
2010,04,26,01,16,6.90
2010,04,26,01,17,6.90
2010,04,26,01,18,6.90
2010,04,26,01,19,6.90
2010,04,26,01,20,6.90
2010,04,26,01,21,6.90
2010,04,26,01,22,6.90
2010,04,26,01,23,6.90
2010,04,26,01,24,6.90
2010,04,26,01,25,6.90
2010,04,26,01,26,6.90
2010,04,26,01,27,6.80
2010,04,26,01,28,6.80
2010,04,26,01,29,6.80
2010,04,26,01,30,6.80
2010,04,26,01,31,6.80
2010,04,26,01,32,6.80
2010,04,26,01,33,6.80
2010,04,26,01,34,6.70
2010,04,26,01,35,6.70
2010,04,26,01,36,6.70
2010,04,26,01,37,6.70
2010,04,26,01,38,6.70
2010,04,26,01,39,6.70
2010,04,26,01,40,6.70
2010,04,26,01,41,6.70
2010,04,26,01,42,6.70
2010,04,26,01,43,6.70
2010,04,26,01,44,6.60
2010,04,26,01,45,6.60
2010,04,26,01,46,6.60
2010,04,26,01,47,6.60
2010,04,26,01,48,6.60
2010,04,26,01,49,6.60
2010,04,26,01,50,6.60
2010,04,26,01,51,6.60
2010,04,26,01,52,6.60
2010,04,26,01,53,6.50
2010,04,26,01,54,6.50
2010,04,26,01,55,6.50
2010,04,26,01,56,6.50
2010,04,26,01,57,6.50
2010,04,26,01,58,6.50
2010,04,26,01,59,6.50
2010,04,26,02,00,6.50
2010,04,26,02,01,6.50
2010,04,26,02,02,6.50
2010,04,26,02,03,6.50
2010,04,26,02,04,6.50
2010,04,26,02,05,6.50
2010,04,26,02,06,6.50
2010,04,26,02,07,6.50
2010,04,26,02,08,6.50
2010,04,26,02,09,6.40
2010,04,26,02,10,6.40
2010,04,26,02,11,6.40
2010,04,26,02,12,6.40
2010,04,26,02,13,6.40
2010,04,26,02,14,6.30
2010,04,26,02,15,6.30
2010,04,26,02,16,6.30
2010,04,26,02,17,6.30
2010,04,26,02,18,6.30
2010,04,26,02,19,6.30
2010,04,26,02,20,6.30
2010,04,26,02,21,6.20
2010,04,26,02,22,6.20
2010,04,26,02,23,6.20
2010,04,26,02,24,6.20
2010,04,26,02,25,6.20
2010,04,26,02,26,6.20
2010,04,26,02,27,6.20
2010,04,26,02,28,6.20
2010,04,26,02,29,6.20
2010,04,26,02,30,6.20
2010,04,26,02,31,6.20
2010,04,26,02,32,6.20
2010,04,26,02,33,6.20
2010,04,26,02,34,6.20
2010,04,26,02,35,6.10
2010,04,26,02,36,6.10
2010,04,26,02,37,6.10
2010,04,26,02,38,6.10
2010,04,26,02,39,6.10
2010,04,26,02,40,6.10
2010,04,26,02,41,6.10
2010,04,26,02,42,6.10
2010,04,26,02,43,6.10
2010,04,26,02,44,6.10
2010,04,26,02,45,6.10
2010,04,26,02,46,6.10
2010,04,26,02,47,6.10
2010,04,26,02,48,6.10
2010,04,26,02,49,6.10
2010,04,26,02,50,6.10
2010,04,26,02,51,6.00
2010,04,26,02,52,6.00
2010,04,26,02,53,6.00
2010,04,26,02,54,6.00
2010,04,26,02,55,6.00
2010,04,26,02,56,6.00
2010,04,26,02,57,6.00
2010,04,26,02,58,6.00
2010,04,26,02,59,6.00
2010,04,26,03,00,5.90
2010,04,26,03,01,6.00
2010,04,26,03,02,5.90
2010,04,26,03,03,5.90
2010,04,26,03,04,5.90
2010,04,26,03,05,5.90
2010,04,26,03,06,5.90
2010,04,26,03,07,5.90
2010,04,26,03,08,5.90
2010,04,26,03,09,5.90
2010,04,26,03,10,5.90
2010,04,26,03,11,5.90
2010,04,26,03,12,5.90
2010,04,26,03,13,5.90
2010,04,26,03,14,5.90
2010,04,26,03,15,5.90
2010,04,26,03,16,5.90
2010,04,26,03,17,5.90
2010,04,26,03,18,5.90
2010,04,26,03,19,6.00
2010,04,26,03,20,6.00
2010,04,26,03,21,6.00
2010,04,26,03,22,5.90
2010,04,26,03,23,5.90
2010,04,26,03,24,5.90
2010,04,26,03,25,5.90
2010,04,26,03,26,6.00
2010,04,26,03,27,6.00
2010,04,26,03,28,6.00
2010,04,26,03,29,5.90
2010,04,26,03,30,5.90
2010,04,26,03,31,5.90
2010,04,26,03,32,5.90
2010,04,26,03,33,5.90
2010,04,26,03,34,5.90
2010,04,26,03,35,5.90
2010,04,26,03,36,5.90
2010,04,26,03,37,5.90
2010,04,26,03,38,5.90
2010,04,26,03,39,5.90
2010,04,26,03,40,5.90
2010,04,26,03,41,5.90
2010,04,26,03,42,5.90
2010,04,26,03,43,5.90
2010,04,26,03,44,5.90
2010,04,26,03,45,5.90
2010,04,26,03,49,5.80
2010,04,26,03,50,5.80
2010,04,26,03,51,5.80
2010,04,26,03,52,5.80
2010,04,26,03,53,5.90
2010,04,26,03,54,5.90
2010,04,26,03,55,5.90
2010,04,26,03,56,5.90
2010,04,26,03,57,5.90
2010,04,26,03,58,6.00
2010,04,26,03,59,6.00
2010,04,26,04,00,6.00
2010,04,26,04,01,6.00
2010,04,26,04,02,6.00
2010,04,26,04,03,6.00
2010,04,26,04,04,6.00
2010,04,26,04,05,6.00
2010,04,26,04,06,6.00
2010,04,26,04,07,6.00
2010,04,26,04,08,6.00
2010,04,26,04,09,6.00
2010,04,26,04,10,6.00
2010,04,26,04,11,6.00
2010,04,26,04,12,6.00
2010,04,26,04,13,6.00
2010,04,26,04,14,6.00
2010,04,26,04,15,6.00
2010,04,26,04,16,6.00
2010,04,26,04,17,6.00
2010,04,26,04,18,5.90
2010,04,26,04,19,5.90
2010,04,26,04,20,5.90
2010,04,26,04,21,5.90
2010,04,26,04,22,5.90
2010,04,26,04,23,5.90
2010,04,26,04,24,5.90
2010,04,26,04,25,5.90
2010,04,26,04,26,5.90
2010,04,26,04,27,5.90
2010,04,26,04,28,5.90
2010,04,26,04,29,5.90
2010,04,26,04,30,5.90
2010,04,26,04,31,5.90
2010,04,26,04,32,5.90
2010,04,26,04,33,5.90
2010,04,26,04,34,5.90
2010,04,26,04,35,5.90
2010,04,26,04,36,5.90
2010,04,26,04,37,5.90
2010,04,26,04,38,5.90
2010,04,26,04,39,5.90
2010,04,26,04,40,5.90
2010,04,26,04,41,5.90
2010,04,26,04,42,5.90
2010,04,26,04,43,5.90
2010,04,26,04,44,5.90
2010,04,26,04,45,5.90
2010,04,26,04,46,5.90
2010,04,26,04,47,5.90
2010,04,26,04,48,5.90
2010,04,26,04,49,5.90
2010,04,26,04,50,5.90
2010,04,26,04,51,5.80
2010,04,26,04,52,5.80
2010,04,26,04,53,5.80
2010,04,26,04,54,5.80
2010,04,26,04,55,5.80
2010,04,26,04,56,5.80
2010,04,26,04,57,5.80
2010,04,26,04,58,5.80
2010,04,26,04,59,5.80
2010,04,26,05,00,5.80
2010,04,26,05,01,5.80
2010,04,26,05,02,5.80
2010,04,26,05,03,5.80
2010,04,26,05,04,5.80
2010,04,26,05,05,5.80
2010,04,26,05,06,5.80
2010,04,26,05,07,5.80
2010,04,26,05,08,5.80
2010,04,26,05,09,5.80
2010,04,26,05,10,5.70
2010,04,26,05,11,5.70
2010,04,26,05,12,5.70
2010,04,26,05,13,5.70
2010,04,26,05,14,5.70
2010,04,26,05,15,5.70
2010,04,26,05,16,5.70
2010,04,26,05,17,5.70
2010,04,26,05,18,5.70
2010,04,26,05,19,5.70
2010,04,26,05,20,5.70
2010,04,26,05,21,5.70
2010,04,26,05,22,5.70
2010,04,26,05,23,5.70
2010,04,26,05,24,5.70
2010,04,26,05,25,5.70
2010,04,26,05,26,5.70
2010,04,26,05,27,5.70
2010,04,26,05,28,5.70
2010,04,26,05,29,5.70
2010,04,26,05,30,5.70
2010,04,26,05,31,5.70
2010,04,26,05,32,5.70
2010,04,26,05,33,5.70
2010,04,26,05,34,5.70
2010,04,26,05,35,5.70
2010,04,26,05,36,5.70
2010,04,26,05,37,5.70
2010,04,26,05,38,5.70
2010,04,26,05,39,5.70
2010,04,26,05,40,5.70
2010,04,26,05,41,5.70
2010,04,26,05,42,5.70
2010,04,26,05,43,5.70
2010,04,26,05,44,5.70
2010,04,26,05,45,5.70
2010,04,26,05,46,5.70
2010,04,26,05,47,5.70
2010,04,26,05,48,5.70
2010,04,26,05,49,5.70
2010,04,26,05,50,5.70
2010,04,26,05,51,5.70
2010,04,26,05,52,5.70
2010,04,26,05,53,5.70
2010,04,26,05,54,5.70
2010,04,26,05,55,5.60
2010,04,26,05,56,5.60
2010,04,26,05,57,5.60
2010,04,26,05,58,5.60
2010,04,26,05,59,5.60
2010,04,26,06,00,5.60
2010,04,26,06,01,5.60
2010,04,26,06,02,5.60
2010,04,26,06,03,5.60
2010,04,26,06,04,5.60
2010,04,26,06,05,5.60
2010,04,26,06,06,5.60
2010,04,26,06,07,5.60
2010,04,26,06,08,5.60
2010,04,26,06,09,5.60
2010,04,26,06,10,5.60
2010,04,26,06,11,5.50
2010,04,26,06,12,5.50
2010,04,26,06,13,5.50
2010,04,26,06,14,5.60
2010,04,26,06,15,5.60
2010,04,26,06,16,5.60
2010,04,26,06,17,5.60
2010,04,26,06,18,5.60
2010,04,26,06,19,5.60
2010,04,26,06,20,5.70
2010,04,26,06,21,5.70
2010,04,26,06,22,5.70
2010,04,26,06,23,5.70
2010,04,26,06,24,5.70
2010,04,26,06,25,5.80
2010,04,26,06,26,5.80
2010,04,26,06,27,5.80
2010,04,26,06,28,5.80
2010,04,26,06,29,5.80
2010,04,26,06,30,5.90
2010,04,26,06,31,5.90
2010,04,26,06,32,5.90
2010,04,26,06,33,5.90
2010,04,26,06,34,5.90
2010,04,26,06,35,5.90
2010,04,26,06,36,6.00
2010,04,26,06,37,6.00
2010,04,26,06,38,6.00
2010,04,26,06,39,6.00
2010,04,26,06,40,6.10
2010,04,26,06,41,6.10
2010,04,26,06,42,6.10
2010,04,26,06,43,6.10
2010,04,26,06,44,6.10
2010,04,26,06,45,6.10
2010,04,26,06,46,6.10
2010,04,26,06,47,6.10
2010,04,26,06,48,6.10
2010,04,26,06,49,6.10
2010,04,26,06,50,6.20
2010,04,26,06,51,6.20
2010,04,26,06,52,6.20
2010,04,26,06,53,6.20
2010,04,26,06,54,6.20
2010,04,26,06,55,6.20
2010,04,26,06,56,6.20
2010,04,26,06,57,6.20
2010,04,26,06,58,6.30
2010,04,26,06,59,6.30
2010,04,26,07,00,6.30
2010,04,26,07,01,6.30
2010,04,26,07,02,6.30
2010,04,26,07,03,6.30
2010,04,26,07,04,6.30
2010,04,26,07,05,6.40
2010,04,26,07,06,6.40
2010,04,26,07,07,6.40
2010,04,26,07,08,6.40
2010,04,26,07,09,6.40
2010,04,26,07,10,6.40
2010,04,26,07,11,6.40
2010,04,26,07,12,6.40
2010,04,26,07,13,6.50
2010,04,26,07,14,6.50
2010,04,26,07,15,6.50
2010,04,26,07,16,6.50
2010,04,26,07,17,6.60
2010,04,26,07,18,6.60
2010,04,26,07,19,6.60
2010,04,26,07,20,6.60
2010,04,26,07,21,6.60
2010,04,26,07,22,6.60
2010,04,26,07,23,6.70
2010,04,26,07,24,6.70
2010,04,26,07,25,6.80
2010,04,26,07,26,6.80
2010,04,26,07,27,6.80
2010,04,26,07,28,6.90
2010,04,26,07,29,6.90
2010,04,26,07,30,6.90
2010,04,26,07,31,7.00
2010,04,26,07,32,7.00
2010,04,26,07,33,7.00
2010,04,26,07,34,7.10
2010,04,26,07,35,7.10
2010,04,26,07,36,7.10
2010,04,26,07,37,7.10
2010,04,26,07,38,7.10
2010,04,26,07,39,7.10
2010,04,26,07,40,7.20
2010,04,26,07,41,7.20
2010,04,26,07,42,7.20
2010,04,26,07,43,7.20
2010,04,26,07,44,7.20
2010,04,26,07,45,7.20
2010,04,26,07,46,7.20
2010,04,26,07,47,7.30
2010,04,26,07,48,7.30
2010,04,26,07,49,7.30
2010,04,26,07,50,7.30
2010,04,26,07,51,7.30
2010,04,26,07,52,7.40
2010,04,26,07,53,7.40
2010,04,26,07,54,7.40
2010,04,26,07,55,7.40
2010,04,26,07,56,7.50
2010,04,26,07,57,7.50
2010,04,26,07,58,7.50
2010,04,26,07,59,7.60
2010,04,26,08,00,7.60
2010,04,26,08,01,7.60
2010,04,26,08,02,7.60
2010,04,26,08,03,7.70
2010,04,26,08,04,7.70
2010,04,26,08,05,7.70
2010,04,26,08,06,7.70
2010,04,26,08,07,7.70
2010,04,26,08,08,7.70
2010,04,26,08,09,7.70
2010,04,26,08,10,7.70
2010,04,26,08,11,7.80
2010,04,26,08,12,7.80
2010,04,26,08,13,7.80
2010,04,26,08,14,7.80
2010,04,26,08,15,7.80
2010,04,26,08,16,7.90
2010,04,26,08,17,7.90
2010,04,26,08,18,7.90
2010,04,26,08,19,7.90
2010,04,26,08,20,7.90
2010,04,26,08,21,7.90
2010,04,26,08,22,7.90
2010,04,26,08,23,7.90
2010,04,26,08,24,7.90
2010,04,26,08,25,8.00
2010,04,26,08,26,8.00
2010,04,26,08,27,8.10
2010,04,26,08,28,8.10
2010,04,26,08,29,8.10
2010,04,26,08,30,8.20
2010,04,26,08,31,8.20
2010,04,26,08,32,8.20
2010,04,26,08,33,8.30
2010,04,26,08,34,8.30
2010,04,26,08,35,8.30
2010,04,26,08,36,8.30
2010,04,26,08,37,8.40
2010,04,26,08,38,8.40
2010,04,26,08,39,8.40
2010,04,26,08,40,8.40
2010,04,26,08,41,8.40
2010,04,26,08,42,8.40
2010,04,26,08,43,8.50
2010,04,26,08,44,8.50
2010,04,26,08,45,8.50
2010,04,26,08,46,8.50
2010,04,26,08,47,8.50
2010,04,26,08,48,8.50
2010,04,26,08,49,8.50
2010,04,26,08,50,8.60
2010,04,26,08,51,8.60
2010,04,26,08,52,8.60
2010,04,26,08,53,8.60
2010,04,26,08,54,8.60
2010,04,26,08,55,8.60
2010,04,26,08,56,8.60
2010,04,26,08,57,8.60
2010,04,26,08,58,8.60
2010,04,26,08,59,8.60
2010,04,26,09,00,8.60
2010,04,26,09,01,8.70
2010,04,26,09,02,8.70
2010,04,26,09,03,8.70
2010,04,26,09,04,8.70
2010,04,26,09,05,8.70
2010,04,26,09,06,8.70
2010,04,26,09,07,8.70
2010,04,26,09,08,8.70
2010,04,26,09,09,8.70
2010,04,26,09,10,8.70
2010,04,26,09,11,8.70
2010,04,26,09,12,8.70
2010,04,26,09,13,8.80
2010,04,26,09,14,8.80
2010,04,26,09,15,8.80
2010,04,26,09,16,8.80
2010,04,26,09,17,8.80
2010,04,26,09,18,8.80
2010,04,26,09,19,8.80
2010,04,26,09,20,8.80
2010,04,26,09,21,8.80
2010,04,26,09,22,8.80
2010,04,26,09,23,8.80
2010,04,26,09,24,8.80
2010,04,26,09,25,8.80
2010,04,26,09,26,8.80
2010,04,26,09,27,8.80
2010,04,26,09,28,8.80
2010,04,26,09,29,8.80
2010,04,26,09,30,8.80
2010,04,26,09,31,8.80
2010,04,26,09,32,8.80
2010,04,26,09,33,8.80
2010,04,26,09,34,8.80
2010,04,26,09,35,8.80
2010,04,26,09,36,8.80
2010,04,26,09,37,8.80
2010,04,26,09,38,8.80
2010,04,26,09,39,8.80
2010,04,26,09,40,8.80
2010,04,26,09,41,8.80
2010,04,26,09,42,8.80
2010,04,26,09,43,8.80
2010,04,26,09,44,8.80
2010,04,26,09,45,8.80
2010,04,26,09,46,8.80
2010,04,26,09,47,8.90
2010,04,26,09,48,8.90
2010,04,26,09,49,8.90
2010,04,26,09,50,9.00
2010,04,26,09,51,9.00
2010,04,26,09,52,9.10
2010,04,26,09,53,9.10
2010,04,26,09,54,9.20
2010,04,26,09,55,9.30
2010,04,26,09,56,9.30
2010,04,26,09,57,9.40
2010,04,26,09,58,9.40
2010,04,26,09,59,9.50
2010,04,26,10,00,9.60
2010,04,26,10,01,9.60
2010,04,26,10,02,9.60
2010,04,26,10,03,9.70
2010,04,26,10,04,9.70
2010,04,26,10,05,9.80
2010,04,26,10,06,9.80
2010,04,26,10,07,9.90
2010,04,26,10,08,9.90
2010,04,26,10,09,10.00
2010,04,26,10,10,10.00
2010,04,26,10,11,10.10
2010,04,26,10,12,10.20
2010,04,26,10,13,10.20
2010,04,26,10,14,10.30
2010,04,26,10,15,10.40
2010,04,26,10,16,10.40
2010,04,26,10,17,10.50
2010,04,26,10,18,10.60
2010,04,26,10,19,10.60
2010,04,26,10,20,10.70
2010,04,26,10,21,10.80
2010,04,26,10,22,10.90
2010,04,26,10,23,10.90
2010,04,26,10,24,11.00
2010,04,26,10,25,11.00
2010,04,26,10,26,11.00
2010,04,26,10,27,11.10
2010,04,26,10,28,11.10
2010,04,26,10,29,11.10
2010,04,26,10,30,11.20
2010,04,26,10,31,11.20
2010,04,26,10,32,11.30
2010,04,26,10,33,11.30
2010,04,26,10,34,11.40
2010,04,26,10,35,11.50
2010,04,26,10,36,11.60
2010,04,26,10,37,11.70
2010,04,26,10,38,11.70
2010,04,26,10,39,11.80
2010,04,26,10,40,11.90
2010,04,26,10,41,11.90
2010,04,26,10,42,12.00
2010,04,26,10,43,12.20
2010,04,26,10,44,12.30
2010,04,26,10,45,12.40
2010,04,26,10,46,12.50
2010,04,26,10,47,12.60
2010,04,26,10,48,12.70
2010,04,26,10,49,12.70
2010,04,26,10,50,12.70
2010,04,26,10,51,12.70
2010,04,26,10,52,12.70
2010,04,26,10,53,12.60
2010,04,26,10,54,12.60
2010,04,26,10,55,12.50
2010,04,26,10,56,12.40
2010,04,26,10,57,12.40
2010,04,26,10,58,12.30
2010,04,26,10,59,12.30
2010,04,26,11,00,12.20
2010,04,26,11,01,12.20
2010,04,26,11,02,12.10
2010,04,26,11,03,12.10
2010,04,26,11,04,12.10
2010,04,26,11,05,12.10
2010,04,26,11,06,12.00
2010,04,26,11,07,12.00
2010,04,26,11,08,12.00
2010,04,26,11,09,12.10
2010,04,26,11,10,12.10
2010,04,26,11,11,12.20
2010,04,26,11,12,12.20
2010,04,26,11,13,12.30
2010,04,26,11,14,12.30
2010,04,26,11,15,12.30
2010,04,26,11,16,12.40
2010,04,26,11,17,12.40
2010,04,26,11,18,12.40
2010,04,26,11,19,12.40
2010,04,26,11,20,12.50
2010,04,26,11,21,12.40
2010,04,26,11,22,12.50
2010,04,26,11,23,12.50
2010,04,26,11,24,12.50
2010,04,26,11,25,12.50
2010,04,26,11,26,12.50
2010,04,26,11,27,12.50
2010,04,26,11,28,12.50
2010,04,26,11,29,12.50
2010,04,26,11,30,12.60
2010,04,26,11,31,12.60
2010,04,26,11,32,12.60
2010,04,26,11,33,12.60
2010,04,26,11,34,12.70
2010,04,26,11,35,12.70
2010,04,26,11,36,12.70
2010,04,26,11,37,12.70
2010,04,26,11,38,12.70
2010,04,26,11,39,12.70
2010,04,26,11,40,12.70
2010,04,26,11,41,12.70
2010,04,26,11,42,12.70
2010,04,26,11,43,12.70
2010,04,26,11,44,12.70
2010,04,26,11,45,12.80
2010,04,26,11,46,12.90
2010,04,26,11,47,12.90
2010,04,26,11,48,13.00
2010,04,26,11,49,13.00
2010,04,26,11,50,13.00
2010,04,26,11,51,13.00
2010,04,26,11,52,13.10
2010,04,26,11,53,13.10
2010,04,26,11,54,13.20
2010,04,26,11,55,13.20
2010,04,26,11,56,13.20
2010,04,26,11,57,13.30
2010,04,26,11,58,13.30
2010,04,26,11,59,13.30
2010,04,26,12,00,13.30
2010,04,26,12,01,13.40
2010,04,26,12,02,13.40
2010,04,26,12,03,13.40
2010,04,26,12,04,13.40
2010,04,26,12,05,13.40
2010,04,26,12,06,13.40
2010,04,26,12,07,13.40
2010,04,26,12,08,13.50
2010,04,26,12,09,13.40
2010,04,26,12,10,13.40
2010,04,26,12,11,13.40
2010,04,26,12,12,13.40
2010,04,26,12,13,13.30
2010,04,26,12,14,13.30
2010,04,26,12,15,13.30
2010,04,26,12,16,13.30
2010,04,26,12,17,13.30
2010,04,26,12,18,13.30
2010,04,26,12,19,13.30
2010,04,26,12,20,13.40
2010,04,26,12,21,13.40
2010,04,26,12,22,13.40
2010,04,26,12,23,13.30
2010,04,26,12,24,13.30
2010,04,26,12,25,13.20
2010,04,26,12,26,13.20
2010,04,26,12,27,13.20
2010,04,26,12,28,13.20
2010,04,26,12,29,13.30
2010,04,26,12,30,13.30
2010,04,26,12,31,13.30
2010,04,26,12,32,13.30
2010,04,26,12,33,13.30
2010,04,26,12,34,13.30
2010,04,26,12,35,13.40
2010,04,26,12,36,13.40
2010,04,26,12,37,13.40
2010,04,26,12,38,13.40
2010,04,26,12,39,13.40
2010,04,26,12,40,13.40
2010,04,26,12,41,13.50
2010,04,26,12,42,13.50
2010,04,26,12,43,13.50
2010,04,26,12,44,13.50
2010,04,26,12,45,13.50
2010,04,26,12,46,13.50
2010,04,26,12,47,13.50
2010,04,26,12,48,13.50
2010,04,26,12,49,13.50
2010,04,26,12,50,13.60
2010,04,26,12,51,13.60
2010,04,26,12,52,13.50
2010,04,26,12,53,13.50
2010,04,26,12,54,13.40
2010,04,26,12,55,13.40
2010,04,26,12,56,13.40
2010,04,26,12,57,13.40
2010,04,26,12,58,13.30
2010,04,26,12,59,13.30
2010,04,26,13,00,13.30
2010,04,26,13,01,13.40
2010,04,26,13,02,13.40
2010,04,26,13,03,13.40
2010,04,26,13,04,13.40
2010,04,26,13,05,13.50
2010,04,26,13,06,13.50
2010,04,26,13,07,13.60
2010,04,26,13,08,13.60
2010,04,26,13,09,13.60
2010,04,26,13,10,13.60
2010,04,26,13,11,13.70
2010,04,26,13,12,13.70
2010,04,26,13,13,13.60
2010,04,26,13,14,13.60
2010,04,26,13,15,13.60
2010,04,26,13,16,13.60
2010,04,26,13,17,13.60
2010,04,26,13,18,13.60
2010,04,26,13,19,13.60
2010,04,26,13,20,13.50
2010,04,26,13,21,13.50
2010,04,26,13,22,13.50
2010,04,26,13,23,13.50
2010,04,26,13,24,13.50
2010,04,26,13,25,13.50
2010,04,26,13,26,13.50
2010,04,26,13,27,13.50
2010,04,26,13,28,13.50
2010,04,26,13,29,13.60
2010,04,26,13,30,13.60
2010,04,26,13,31,13.60
2010,04,26,13,32,13.60
2010,04,26,13,33,13.60
2010,04,26,13,34,13.60
2010,04,26,13,35,13.60
2010,04,26,13,36,13.60
2010,04,26,13,37,13.60
2010,04,26,13,38,13.70
2010,04,26,13,39,13.70
2010,04,26,13,40,13.70
2010,04,26,13,41,13.80
2010,04,26,13,42,13.80
2010,04,26,13,43,13.90
2010,04,26,13,44,13.90
2010,04,26,13,45,13.90
2010,04,26,13,46,14.00
2010,04,26,13,47,14.00
2010,04,26,13,48,14.10
2010,04,26,13,49,14.10
2010,04,26,13,50,14.20
2010,04,26,13,51,14.20
2010,04,26,13,52,14.20
2010,04,26,13,53,14.30
2010,04,26,13,54,14.30
2010,04,26,13,55,14.30
2010,04,26,13,56,14.30
2010,04,26,13,57,14.30
2010,04,26,13,58,14.40
2010,04,26,13,59,14.40
2010,04,26,14,00,14.40
2010,04,26,14,01,14.40
2010,04,26,14,02,14.30
2010,04,26,14,03,14.30
2010,04,26,14,04,14.30
2010,04,26,14,05,14.20
2010,04,26,14,06,14.10
2010,04,26,14,07,14.10
2010,04,26,14,08,14.00
2010,04,26,14,09,13.90
2010,04,26,14,10,13.90
2010,04,26,14,11,13.80
2010,04,26,14,12,13.80
2010,04,26,14,13,13.70
2010,04,26,14,14,13.70
2010,04,26,14,15,13.70
2010,04,26,14,16,13.60
2010,04,26,14,17,13.60
2010,04,26,14,18,13.60
2010,04,26,14,19,13.60
2010,04,26,14,20,13.50
2010,04,26,14,21,13.50
2010,04,26,14,22,13.40
2010,04,26,14,23,13.40
2010,04,26,14,24,13.30
2010,04,26,14,25,13.30
2010,04,26,14,26,13.20
2010,04,26,14,27,13.10
2010,04,26,14,28,13.00
2010,04,26,14,29,13.00
2010,04,26,14,30,12.90
2010,04,26,14,31,12.90
2010,04,26,14,32,12.80
2010,04,26,14,33,12.80
2010,04,26,14,34,12.80
2010,04,26,14,35,12.80
2010,04,26,14,36,12.70
2010,04,26,14,37,12.70
2010,04,26,14,38,12.70
2010,04,26,14,39,12.70
2010,04,26,14,40,12.60
2010,04,26,14,41,12.60
2010,04,26,14,42,12.60
2010,04,26,14,43,12.50
2010,04,26,14,44,12.40
2010,04,26,14,45,12.40
2010,04,26,14,46,12.30
2010,04,26,14,47,12.20
2010,04,26,14,48,12.20
2010,04,26,14,49,12.20
2010,04,26,14,50,12.20
2010,04,26,14,51,12.10
2010,04,26,14,52,12.10
2010,04,26,14,53,12.00
2010,04,26,14,54,12.00
2010,04,26,14,55,12.00
2010,04,26,14,56,12.00
2010,04,26,14,57,12.00
2010,04,26,14,58,12.00
2010,04,26,14,59,12.00
2010,04,26,15,00,12.10
2010,04,26,15,01,12.10
2010,04,26,15,02,12.10
2010,04,26,15,03,12.10
2010,04,26,15,04,12.10
2010,04,26,15,05,12.10
2010,04,26,15,06,12.00
2010,04,26,15,07,12.00
2010,04,26,15,08,12.00
2010,04,26,15,09,11.90
2010,04,26,15,10,12.00
2010,04,26,15,11,11.90
2010,04,26,15,12,11.90
2010,04,26,15,13,11.90
2010,04,26,15,14,11.90
2010,04,26,15,15,11.90
2010,04,26,15,16,11.80
2010,04,26,15,17,11.80
2010,04,26,15,18,11.70
2010,04,26,15,19,11.70
2010,04,26,15,20,11.60
2010,04,26,15,21,11.60
2010,04,26,15,22,11.50
2010,04,26,15,23,11.50
2010,04,26,15,24,11.50
2010,04,26,15,25,11.50
2010,04,26,15,26,11.40
2010,04,26,15,27,11.40
2010,04,26,15,28,11.40
2010,04,26,15,29,11.40
2010,04,26,15,30,11.40
2010,04,26,15,31,11.40
2010,04,26,15,32,11.40
2010,04,26,15,33,11.50
2010,04,26,15,34,11.50
2010,04,26,15,35,11.50
2010,04,26,15,36,11.50
2010,04,26,15,37,11.40
2010,04,26,15,38,11.40
2010,04,26,15,39,11.40
2010,04,26,15,40,11.40
2010,04,26,15,41,11.30
2010,04,26,15,42,11.30
2010,04,26,15,43,11.30
2010,04,26,15,44,11.30
2010,04,26,15,45,11.30
2010,04,26,15,46,11.30
2010,04,26,15,47,11.30
2010,04,26,15,48,11.30
2010,04,26,15,49,11.20
2010,04,26,15,50,11.20
2010,04,26,15,51,11.20
2010,04,26,15,52,11.20
2010,04,26,15,53,11.20
2010,04,26,15,54,11.30
2010,04,26,15,55,11.20
2010,04,26,15,56,11.30
2010,04,26,15,57,11.20
2010,04,26,15,58,11.20
2010,04,26,15,59,11.30
2010,04,26,16,00,11.40
2010,04,26,16,01,11.60
2010,04,26,16,02,11.70
2010,04,26,16,03,11.80
2010,04,26,16,04,12.20
2010,04,26,16,05,12.70
2010,04,26,16,06,13.00
2010,04,26,16,07,13.20
2010,04,26,16,08,13.50
2010,04,26,16,09,13.60
2010,04,26,16,10,13.80
2010,04,26,16,11,14.00
2010,04,26,16,12,14.20
2010,04,26,16,13,14.30
2010,04,26,16,14,14.40
2010,04,26,16,15,14.50
2010,04,26,16,16,14.50
2010,04,26,16,17,14.50
2010,04,26,16,18,14.50
2010,04,26,16,19,14.60
2010,04,26,16,20,14.60
2010,04,26,16,21,14.60
2010,04,26,16,22,14.60
2010,04,26,16,23,14.70
2010,04,26,16,24,14.70
2010,04,26,16,25,14.70
2010,04,26,16,26,14.70
2010,04,26,16,27,14.80
2010,04,26,16,28,14.70
2010,04,26,16,29,14.70
2010,04,26,16,30,14.70
2010,04,26,16,31,14.70
2010,04,26,16,32,14.80
2010,04,26,16,33,14.80
2010,04,26,16,34,14.70
2010,04,26,16,35,14.70
2010,04,26,16,36,14.70
2010,04,26,16,37,14.60
2010,04,26,16,38,14.60
2010,04,26,16,39,14.60
2010,04,26,16,40,14.60
2010,04,26,16,41,14.60
2010,04,26,16,42,14.60
2010,04,26,16,43,14.60
2010,04,26,16,44,14.60
2010,04,26,16,45,14.60
2010,04,26,16,46,14.50
2010,04,26,16,47,14.50
2010,04,26,16,48,14.40
2010,04,26,16,49,14.40
2010,04,26,16,50,14.40
2010,04,26,16,51,14.30
2010,04,26,16,52,14.30
2010,04,26,16,53,14.30
2010,04,26,16,54,14.30
2010,04,26,16,55,14.30
2010,04,26,16,56,14.30
2010,04,26,16,57,14.30
2010,04,26,16,58,14.30
2010,04,26,16,59,14.30
2010,04,26,17,00,14.20
2010,04,26,17,01,14.20
2010,04,26,17,02,14.20
2010,04,26,17,03,14.10
2010,04,26,17,04,14.10
2010,04,26,17,05,14.10
2010,04,26,17,06,14.10
2010,04,26,17,07,14.00
2010,04,26,17,08,14.00
2010,04,26,17,09,14.00
2010,04,26,17,10,14.00
2010,04,26,17,11,13.90
2010,04,26,17,12,13.90
2010,04,26,17,13,13.90
2010,04,26,17,14,13.90
2010,04,26,17,15,13.90
2010,04,26,17,16,13.90
2010,04,26,17,17,13.90
2010,04,26,17,18,13.90
2010,04,26,17,19,13.90
2010,04,26,17,20,13.90
2010,04,26,17,21,13.90
2010,04,26,17,22,13.90
2010,04,26,17,23,13.90
2010,04,26,17,24,13.90
2010,04,26,17,25,13.80
2010,04,26,17,26,13.80
2010,04,26,17,27,13.80
2010,04,26,17,28,13.90
2010,04,26,17,29,13.90
2010,04,26,17,30,13.80
2010,04,26,17,31,13.80
2010,04,26,17,32,13.80
2010,04,26,17,33,13.80
2010,04,26,17,34,13.80
2010,04,26,17,35,13.80
2010,04,26,17,36,13.80
2010,04,26,17,37,13.80
2010,04,26,17,38,13.80
2010,04,26,17,39,13.80
2010,04,26,17,40,13.80
2010,04,26,17,41,13.80
2010,04,26,17,42,13.80
2010,04,26,17,43,13.80
2010,04,26,17,44,13.80
2010,04,26,17,45,13.80
2010,04,26,17,46,13.80
2010,04,26,17,47,13.90
2010,04,26,17,48,13.90